Location: Bacharowice
(49.9333°N, 19.5833°E)
Time: 03:22:10
(UTC+00:00)

Cosmos 158 Rocket - Pass Details

Date: 11 May 2021
Orbit: 699 x 793 km, 74.0° (Epoch: 22 June)

Event Time Altitude Azimuth Distance (km) Brightness Sun altitude
Rises 19:56:45 0° 337° (NNW) 3,095 8.7 -13.2°
Reaches altitude 10° 19:59:05 10° 340° (NNW) 2,173 7.6 -13.5°
Maximum altitude 20:03:57 68° 64° (ENE) 761 3.9 -13.9°
Enters shadow 20:07:04 22° 143° (SE) 1,507 4.9 -14.2°
